Regional Weather Roundup
Issued by NWS

Home | Current Version | Previous Version | Text Only | Print | Product List | Glossary Off
Versions: 1 2 3 4 5 6 7 8 9 10 11 12 13 14 15 16 17 18 19 20 21 22 23 24 25 26 27 28 29 30 31 32 33 34 35 36 37 38 39 40 41 42 43 44 45 46 47 48 49 50

000
ASUS45 KTFX 182319
RWRMT
MONTANA HOURLY WEATHER ROUNDUP
NATIONAL WEATHER SERVICE GREAT FALLS MT
519 PM MDT FRI APR 18 2014

NOTE: "FAIR" INDICATES FEW OR NO CLOUDS BELOW 12000 FEET WITH NO
SIGNIFICANT WEATHER AND/OR OBSTRUCTIONS TO VISIBILITY.

* THESE STATIONS ARE NOT UNDER NWS QUALITY CONTROL. THEY DO NOT
   REPORT WEATHER SUCH AS PRECIPITATION OR FOG.

MTZ001>007-043-190000-
WEST OF THE DIVIDE
CITY           SKY/WX    TMP DP  RH WIND       PRES   REMARKS
KALISPELL      CLOUDY    48  23  37 SW14G30   29.85R
MISSOULA       MOCLDY    48  19  32 W20       29.94R
BUTTE          PTCLDY    43  10  26 W25G36    29.89R
MULLAN PASS    CLOUDY    28  25  89 W8G21     29.93R WCI  20
* ESSEX        N/A       40  21  47 W6G21      N/A   WCI  36
* LINCOLN      N/A       45  17  32 SW11G26    N/A
* LOOKOUT PASS N/A       35  28  76 SE8G14     N/A   WCI  28
* PLAINS APT   PTCLDY    52  23  32 SW17G35   29.97R
* POLSON       N/A       48  20  33 W5         N/A
* SEELEY LAKE  N/A       45  17  32 W12G22     N/A
* THOMP F APT  MOCLDY    53  21  29 SW18G27    N/A
$$

MTZ008-052>055-190000-
SOUTHWEST MONTANA
CITY           SKY/WX    TMP DP  RH WIND       PRES   REMARKS
BOZEMAN        MOCLDY    52  19  27 NW35G44   29.81R
DILLON         PTCLDY    54  18  24 W26G38    29.84R
W YELLOWSTONE  N/A       38  36  93 SW4G18     N/A
* THREE FORKS  PTCLDY    52  19  27 W32G45     N/A
* BOULDER HILL N/A       42   8  24 SW20G42    N/A
* MONIDA PASS  N/A       51   0  12 W18G27     N/A
* RAYNOLDS PAS N/A       43  22  43 SE25       N/A
* WHITEHALL    N/A       51  15  24 W20G38     N/A
* WISE RIVER   N/A       43  12  28 NW29G43    N/A
$$

MTZ009>010-012-014-046-048-049-054-190000-
EAST SLOPES AND CENTRAL MONTANA
CITY           SKY/WX    TMP DP  RH WIND       PRES   REMARKS
CUT BANK       CLOUDY    46  21  37 W39G49    29.67S
GREAT FALLS    PTCLDY    50  16  26 W30G44    29.72R
HELENA         MOCLDY    46  18  33 W23G38    29.84R
MALMSTROM AFB  PTCLDY    50  10  20 SW24G36   29.72R
* CONRAD       PTCLDY    50  16  26 W23G32     N/A
* DEARBORN     N/A       47  18  31 S26G52     N/A
* EAST GLACIER N/A       35  24  64 W20G36     N/A   WCI  24
* MONARCH      N/A       42   8  24 W30G38     N/A
* PENDROY      N/A       43  18  37 W46G59     N/A
* ROGERS PASS  N/A       36  15  42 E18G30     N/A   WCI  26
* SAINT MARY   N/A       35  27  73 SW13G29    N/A   WCI  26
* SWEET GRASS  N/A       46  20  36 SW32G41    N/A
* WHITE SULPH  N/A       46  20  36 W18G39     N/A
$$

MTZ011-013-016-021-035-040-045-047-050-051-190000-
NORTH CENTRAL MONTANA
CITY           SKY/WX    TMP DP  RH WIND       PRES   REMARKS
HAVRE          CLOUDY    55  16  21 W26G33    29.65R
LEWISTOWN      CLOUDY    41  32  70 VRB7      29.77R
* CHINOOK      CLOUDY    52  21  30 SW23G29   29.66R
* FORT BENTON  PTCLDY    54  12  19 SW25G37   29.72R
* MALTA APT    PTCLDY    61  30  31 SW10G15   29.59F
* CHESTER      N/A       51  16  25 W24G43     N/A
* DENTON       N/A       52  19  27 SW27G38    N/A
* GEYSER       N/A       48  12  23 W33G44     N/A
* JUDITH GAP   N/A       44  35  71 VRB11G23    N/A
* LOMA         N/A       54  10  17 W28G39     N/A
$$

MTZ017>020-022>027-061-062-190000-
NORTHEAST MONTANA
CITY           SKY/WX    TMP DP  RH WIND       PRES   REMARKS
GLASGOW        CLOUDY    50  46  86 SE8       29.64F
GLENDIVE       CLOUDY    48  43  83 NW18      29.71R
JORDAN         MOCLDY    57  45  64 SW9       29.64F
SIDNEY         CLOUDY    52  43  72 NW18G26   29.69R
WOLF POINT     CLOUDY    50  46  86 E3        29.64F
* BEAVER HILL  N/A       59  36  42 W35G43     N/A
* CIRCLE       N/A       49  46  89 N/A        N/A
* LINDSAY DVD  N/A       47  43  86 W16G23     N/A
* NAVAJO       N/A       42  40  93 S4         N/A
* SACO         N/A       56  44  64 E8         N/A
* SCOBEY APT   CLOUDY    45  37  74 E8        29.65F
$$

MTZ028>042-056>058-190000-
SOUTHCENTRAL AND SOUTHEAST MONTANA
CITY           SKY/WX    TMP DP  RH WIND       PRES   REMARKS
BAKER          CLOUDY    63  36  37 NW25G37   29.64R
BILLINGS       TSTM      63  37  38 S10G16    29.67F
LIVINGSTON     CLOUDY    45  28  51 NW16G37   29.79R
MILES CITY     CLOUDY    54  41  62 N10       29.68F
* EKALAKA APT  CLOUDY    61  36  39 W18G23    29.69R
* LAUREL APT   PTCLDY    63  37  38 SE9        N/A
* ROUNDUP APT  PTCLDY    55  37  51 W18G28     N/A
* HYSHAM       N/A       56  38  51 W10        N/A
* LAME DEER    N/A       50  38  64 N12G18     N/A
* REED POINT   N/A       57  30  36 W22G30     N/A
* ROSCOE HILL  N/A       56  19  23 SW12G30    N/A
$$

REGIONAL REPORTS...DAKOTAS
CITY           SKY/WX    TMP DP  RH WIND       PRES   REMARKS
WILLISTON      CLOUDY    55  36  49 SE12G24   29.66F
DICKINSON      CLOUDY    63  37  38 SE20      29.62S
CROSBY         MOCLDY    50  34  54 E15       29.69F
TIOGA          PTCLDY    52  32  47 SE24G33   29.72R
WATFORD CITY   LGT RAIN  54  39  57 SE12      29.63F
BISMARCK       CLOUDY    64  39  40 SE28G36   29.69F
GRAND FORKS    CLOUDY    50  30  46 SE21      30.04F
FARGO          MOCLDY    50  28  43 SE20G32   30.05F
BUFFALO SD     MOCLDY    70  39  32 SE10      29.52F
RAPID CITY     CLOUDY    73  37  27 S18       29.62F
$$

REGIONAL REPORTS...WYOMING/IDAHO/WASHINGTON
CITY           SKY/WX    TMP DP  RH WIND       PRES   REMARKS
GILLETTE       CLOUDY    63  39  41 NW21G31   29.70R
SHERIDAN       CLOUDY    64  39  40 W5        29.66F
CODY           MOCLDY    57  25  29 W13G23    29.73F
YELLOWSTONE LA MOCLDY    37  27  67 VRB7G18   29.91F WCI  32
SALMON         PTCLDY    54  18  24 N15G25    29.89R
MULLAN PASS    CLOUDY    28  25  89 W8G21     29.93S WCI  20
SAND POINT     CLOUDY    46  32  58 SE5       29.94S
SPOKANE        PTCLDY    52  23  32 SW20      29.96S
$$

REGIONAL REPORTS...ALBERTA
CITY           SKY/WX    TMP DP  RH WIND       PRES   REMARKS
CALGARY        LGT SNOW  32  30  92 N16G23    29.67R VSB 3/4  WCI  21
LETHBRIDGE     LGT RAIN  45  36  71 W32G47    29.62R
MEDICINE HAT   MOCLDY    52  28  40 SW25G36   29.57R
EDMONTON       CLOUDY    34  28  79 N12       29.74R WCI  25
WATERTON GATE  N/A       41  23  49 SW30G43    N/A
CARDSTON       N/A       45  23  42 W28G43     N/A
MILK RIVER     N/A       48  19  32 W30G40     N/A
$$

REGIONAL REPORTS...SASKATCHEWAN
CITY           SKY/WX    TMP DP  RH WIND       PRES   REMARKS
SWIFT CURRENT  LGT RAIN  43  39  86 W13       29.59R
REGINA         LGT RAIN  37  34  89 SE21G29   29.71F WCI  26
VAL MARIE      N/A       57  34  42 SW5        N/A
ASSINIBOIA     N/A       43  37  79 S12G17     N/A
CORONACH       N/A       43  39  86 SE8        N/A

$$




USA.gov is the U.S. government's official web portal to all federal, state and local government web resources and services.